Weather History for Kinston, NC

Change the Weather History Date:

Friday, September 6, 2013

  Actual Average Record
Temperature  
Mean Temperature 74 °F -  
Max Temperature 84 °F 82 °F 100 °F (1983)
Min Temperature 64 °F 65 °F 53 °F (1967)
Cooling Degree Days 9    
Growing Degree Days 24 (Base 50)    
Moisture  
Dew Point 64 °F    
Average Humidity 80    
Maximum Humidity 95    
Minimum Humidity 51    
Precipitation  
Precipitation 0.00 in - - ()
Sea Level Pressure  
Sea Level Pressure 30.10 in    
Wind  
Wind Speed 3 mph (NNE)    
Max Wind Speed 9 mph    
Max Gust Speed -    
Visibility 10 miles    
Events      
Averages and records for this station are not official NWS values.
T = Trace of Precipitation, MM = Missing Value Source: NWS Daily Summary

Daily Weather History Graph

Daily Weather History Graph

Search for Another Location

Airport:

Trip Planner

Search our weather history database for the weather conditions in past years. The results will help you decide how hot, cold, wet, or windy it might be!

Date:

Astronomy

Sep. 06, 2013 Rise Set
Actual Time 6:46 AM EDT 7:30 PM EDT
Civil Twilight 6:20 AM EDT 7:55 PM EDT
Nautical Twilight 5:50 AM EDT 8:26 PM EDT
Astronomical Twilight 5:19 AM EDT 8:57 PM EDT
Moon 7:52 AM EDT (9/6) 7:58 PM EDT (9/6)
Length of Visible Light 13h 34m
Length of Day
12h 43m
New Moon, 1% of the Moon is Illuminated
Sep 6
New Moon
Sep 12
First Quarter
Sep 19
Full
Sep 26
Last Quarter
Oct 4
New

Hourly Weather History & Observations

Time (EDT) Temp. Heat Index Dew Point Humidity Pressure Visibility Wind Dir Wind Speed Gust Speed Precip Events Conditions
12:15 AM 66.7 °F - 64.4 °F 92% 30.07 in 10.0 mi Calm Calm - N/A   Clear
12:35 AM 66.2 °F - 64.0 °F 93% 30.07 in 10.0 mi Calm Calm - N/A   Clear
12:55 AM 66.4 °F - 64.4 °F 93% 30.07 in 7.0 mi Calm Calm - N/A   Clear
1:15 AM 65.5 °F - 63.7 °F 94% 30.07 in 10.0 mi Calm Calm - N/A   Clear
1:35 AM 64.6 °F - 63.1 °F 95% 30.07 in 10.0 mi Calm Calm - N/A   Clear
1:55 AM 64.9 °F - 63.5 °F 95% 30.07 in 10.0 mi Calm Calm - N/A   Clear
2:15 AM 64.2 °F - 62.6 °F 94% 30.07 in 10.0 mi Calm Calm - N/A   Clear
2:35 AM 65.3 °F - 63.1 °F 93% 30.07 in 10.0 mi Calm Calm - N/A   Clear
2:55 AM 64.4 °F - 62.6 °F 94% 30.06 in 10.0 mi Calm Calm - N/A   Clear
3:15 AM 65.3 °F - 62.6 °F 91% 30.06 in 10.0 mi Calm Calm - N/A   Clear
3:35 AM 64.4 °F - 61.9 °F 92% 30.07 in 10.0 mi North 4.6 mph - N/A   Clear
3:55 AM 66.4 °F - 62.2 °F 86% 30.07 in 10.0 mi Calm Calm - N/A   Clear
4:15 AM 65.5 °F - 62.2 °F 89% 30.07 in 10.0 mi North 4.6 mph - N/A   Clear
4:35 AM 66.2 °F - 62.2 °F 87% 30.07 in 10.0 mi North 3.5 mph - N/A   Clear
4:55 AM 66.2 °F - 62.6 °F 88% 30.08 in 10.0 mi North 4.6 mph - N/A   Clear
5:15 AM 66.2 °F - 63.1 °F 90% 30.08 in 10.0 mi North 5.8 mph - N/A   Clear
5:35 AM 67.1 °F - 63.5 °F 88% 30.09 in 10.0 mi North 6.9 mph - N/A   Clear
5:55 AM 67.3 °F - 63.3 °F 87% 30.09 in 10.0 mi North 5.8 mph - N/A   Clear
6:15 AM 67.5 °F - 62.1 °F 83% 30.10 in 10.0 mi North 6.9 mph - N/A   Clear
6:35 AM 66.6 °F - 61.9 °F 85% 30.11 in 10.0 mi North 5.8 mph - N/A   Clear
6:55 AM 65.7 °F - 61.7 °F 87% 30.11 in 10.0 mi North 6.9 mph - N/A   Clear
6:56 AM 66.2 °F - 62.6 °F 88% 30.11 in 10.0 mi North 6.9 mph - N/A   Clear
7:56 AM 68.0 °F - 62.6 °F 83% 30.13 in 10.0 mi North 8.1 mph - N/A   Clear
8:56 AM 71.6 °F - 64.4 °F 78% 30.14 in 10.0 mi North 9.2 mph - N/A   Clear
9:56 AM 75.2 °F - 68.0 °F 78% 30.15 in 10.0 mi NE 8.1 mph - N/A   Clear
10:56 AM 80.6 °F 83.2 °F 68.0 °F 65% 30.15 in 10.0 mi NE 9.2 mph - N/A   Scattered Clouds
11:56 AM 82.4 °F 84.6 °F 66.2 °F 58% 30.14 in 10.0 mi NNE 9.2 mph - N/A   Clear
12:56 PM 82.4 °F 85.4 °F 68.0 °F 62% 30.14 in 10.0 mi NNE 4.6 mph - N/A   Scattered Clouds
1:56 PM 84.2 °F 86.6 °F 66.2 °F 55% 30.12 in 10.0 mi North 9.2 mph - N/A   Scattered Clouds
2:56 PM 84.2 °F 85.6 °F 64.4 °F 51% 30.10 in 10.0 mi North 8.1 mph - N/A   Scattered Clouds
3:56 PM 84.2 °F 85.6 °F 64.4 °F 51% 30.08 in 10.0 mi NNW 6.9 mph - N/A   Scattered Clouds
4:56 PM 84.2 °F 85.6 °F 64.4 °F 51% 30.07 in 10.0 mi North 6.9 mph - N/A   Clear
5:56 PM 78.8 °F - 68.0 °F 69% 30.08 in 10.0 mi NE 9.2 mph - N/A   Clear
6:56 PM 77.0 °F - 66.2 °F 69% 30.09 in 10.0 mi ENE 9.2 mph - N/A   Mostly Cloudy
7:56 PM 75.2 °F - 64.4 °F 69% 30.10 in 10.0 mi ENE 6.9 mph - N/A   Mostly Cloudy
8:56 PM 73.4 °F - 64.4 °F 73% 30.12 in 10.0 mi NE 5.8 mph - N/A   Mostly Cloudy
9:15 PM 72.0 °F - 64.0 °F 76% 30.12 in 10.0 mi NE 6.9 mph - N/A   Scattered Clouds
9:35 PM 70.7 °F - 63.9 °F 79% 30.12 in 10.0 mi NE 6.9 mph - N/A   Clear
9:55 PM 70.7 °F - 63.1 °F 77% 30.13 in 10.0 mi NE 6.9 mph - N/A   Clear
9:56 PM 69.8 °F - 62.6 °F 78% 30.13 in 10.0 mi NE 5.8 mph - N/A   Clear
10:15 PM 69.8 °F - 63.0 °F 79% 30.13 in 10.0 mi NE 5.8 mph - N/A   Scattered Clouds
10:35 PM 68.9 °F - 63.0 °F 81% 30.13 in 10.0 mi NNE 5.8 mph - N/A   Scattered Clouds
10:55 PM 68.4 °F - 63.0 °F 83% 30.13 in 10.0 mi NE 4.6 mph - N/A   Clear
11:15 PM 68.0 °F - 62.8 °F 83% 30.14 in 10.0 mi NNE 4.6 mph - N/A   Clear
11:35 PM 67.5 °F - 62.6 °F 84% 30.14 in 10.0 mi NNE 3.5 mph - N/A   Clear
11:55 PM 66.9 °F - 62.6 °F 86% 30.13 in 10.0 mi North 3.5 mph - N/A   Clear